Weather History for Glenwood, MN

Change the Weather History Date:

Sunday, November 25, 2012

  Actual Average Record
Temperature  
Mean Temperature 22 °F -  
Max Temperature 30 °F 34 °F 54 °F (1960)
Min Temperature 12 °F 17 °F -5 °F (1951)
Degree Days  
Heating Degree Days 43    
Moisture  
Dew Point 19 °F    
Average Humidity 80    
Maximum Humidity 93    
Minimum Humidity 63    
Precipitation  
Precipitation 0.00 in - - ()
Sea Level Pressure  
Sea Level Pressure 29.98 in    
Wind  
Wind Speed 13 mph (NW)    
Max Wind Speed 22 mph    
Max Gust Speed 29 mph    
Visibility 10 miles    
Events      
Averages and records for this station are not official NWS values.
T = Trace of Precipitation, MM = Missing Value Source: NWS Daily Summary

Daily Weather History Graph

Daily Weather History Graph

Search for Another Location

Airport:

Trip Planner

Search our weather history database for the weather conditions in past years. The results will help you decide how hot, cold, wet, or windy it might be!

Date:

Astronomy

Nov. 25, 2012 Rise Set
Actual Time 7:34 AM CST 4:41 PM CST
Civil Twilight 7:01 AM CST 5:14 PM CST
Nautical Twilight 6:24 AM CST 5:51 PM CST
Astronomical Twilight 5:49 AM CST 6:27 PM CST
Moon 3:04 PM CST (11/25) 4:43 AM CST (11/25)
Length of Visible Light 10h 13m
Length of Day
9h 07m
Waxing Gibbous, 93% of the Moon is Illuminated
Nov 25
Waxing Gibbous
Nov 28
Full
Dec 6
Last Quarter
Dec 13
New
Dec 19
First Quarter

Hourly Weather History & Observations

Time (CST) Temp. Windchill Dew Point Humidity Pressure Visibility Wind Dir Wind Speed Gust Speed Precip Events Conditions
12:13 AM 28.4 °F 19.1 °F 23.0 °F 80% 29.81 in 10.0 mi WNW 10.4 mph - N/A   Overcast
12:33 AM 28.4 °F 19.1 °F 23.0 °F 80% 29.81 in 10.0 mi NW 10.4 mph - N/A   Overcast
12:53 AM 28.4 °F 17.0 °F 24.8 °F 86% 29.82 in 10.0 mi NW 15.0 mph 23.0 mph N/A   Overcast
1:13 AM 28.4 °F 15.8 °F 24.8 °F 86% 29.82 in 10.0 mi NW 18.4 mph 24.2 mph N/A   Overcast
1:33 AM 28.4 °F 16.2 °F 24.8 °F 86% 29.83 in 10.0 mi NW 17.3 mph 23.0 mph N/A   Overcast
1:53 AM 28.4 °F 17.5 °F 24.8 °F 86% 29.84 in 10.0 mi NW 13.8 mph 23.0 mph N/A   Overcast
2:14 AM 26.6 °F 15.7 °F 24.8 °F 93% 29.85 in 10.0 mi NW 12.7 mph 20.7 mph N/A   Overcast
2:33 AM 26.6 °F 14.3 °F 24.8 °F 93% 29.86 in 10.0 mi NW 16.1 mph 21.9 mph N/A   Overcast
2:53 AM 26.6 °F 16.2 °F 24.8 °F 93% 29.87 in 10.0 mi NW 11.5 mph 18.4 mph N/A   Overcast
3:14 AM 26.6 °F 14.3 °F 23.0 °F 86% 29.87 in 10.0 mi NW 16.1 mph 20.7 mph N/A   Overcast
3:33 AM 26.6 °F 15.2 °F 23.0 °F 86% 29.88 in 10.0 mi NNW 13.8 mph 19.6 mph N/A   Overcast
3:53 AM 26.6 °F 14.3 °F 23.0 °F 86% 29.88 in 10.0 mi NW 16.1 mph 20.7 mph N/A   Overcast
4:14 AM 24.8 °F 12.4 °F 23.0 °F 93% 29.90 in 10.0 mi NW 15.0 mph - N/A   Overcast
4:33 AM 26.6 °F 14.7 °F 23.0 °F 86% 29.90 in 10.0 mi NW 15.0 mph 21.9 mph N/A   Overcast
4:53 AM 26.6 °F 16.8 °F 23.0 °F 86% 29.89 in 10.0 mi NNW 10.4 mph - N/A   Overcast
5:14 AM 24.8 °F 13.4 °F 21.2 °F 86% 29.90 in 10.0 mi NNW 12.7 mph - N/A   Overcast
5:33 AM 24.8 °F 14.0 °F 21.2 °F 86% 29.90 in 10.0 mi NW 11.5 mph - N/A   Overcast
5:53 AM 24.8 °F 16.1 °F 21.2 °F 86% 29.91 in 10.0 mi NW 8.1 mph - N/A   Overcast
6:14 AM 24.8 °F 13.4 °F 21.2 °F 86% 29.91 in 10.0 mi WNW 12.7 mph - N/A   Overcast
6:33 AM 24.8 °F 12.4 °F 21.2 °F 86% 29.91 in 10.0 mi WNW 15.0 mph - N/A   Overcast
6:53 AM 24.8 °F 14.0 °F 21.2 °F 86% 29.92 in 10.0 mi NW 11.5 mph 19.6 mph N/A   Overcast
7:13 AM 24.8 °F 14.0 °F 21.2 °F 86% 29.92 in 10.0 mi NW 11.5 mph - N/A   Overcast
7:53 AM 23.0 °F 12.4 °F 21.2 °F 93% 29.94 in 10.0 mi WNW 10.4 mph - N/A   Overcast
8:13 AM 23.0 °F 11.1 °F 19.4 °F 86% 29.95 in 10.0 mi WNW 12.7 mph - N/A   Overcast
8:33 AM 21.2 °F 8.9 °F 19.4 °F 93% 29.95 in 10.0 mi West 12.7 mph 17.3 mph N/A   Overcast
8:53 AM 21.2 °F 6.8 °F 19.4 °F 93% 29.97 in 10.0 mi WNW 17.3 mph - N/A   Overcast
9:13 AM 21.2 °F 5.6 °F 19.4 °F 93% 29.97 in 10.0 mi WNW 20.7 mph - N/A   Overcast
9:33 AM 23.0 °F 10.1 °F 19.4 °F 86% 29.97 in 10.0 mi WNW 15.0 mph - N/A   Overcast
9:53 AM 24.8 °F 15.3 °F 19.4 °F 80% 29.96 in 10.0 mi West 9.2 mph - N/A   Overcast
10:13 AM 24.8 °F 12.4 °F 19.4 °F 80% 29.98 in 10.0 mi WNW 15.0 mph - N/A   Overcast
10:33 AM 24.8 °F 11.5 °F 19.4 °F 80% 29.98 in 10.0 mi WNW 17.3 mph - N/A   Overcast
10:54 AM 24.8 °F 11.5 °F 21.2 °F 86% 29.98 in 10.0 mi West 17.3 mph - N/A   Overcast
11:13 AM 24.8 °F 13.4 °F 21.2 °F 86% 29.98 in 10.0 mi WNW 12.7 mph - N/A   Overcast
11:33 AM 26.6 °F 13.8 °F 21.2 °F 80% 29.97 in 10.0 mi West 17.3 mph - N/A   Overcast
11:54 AM 26.6 °F 15.7 °F 21.2 °F 80% 29.97 in 10.0 mi West 12.7 mph - N/A   Overcast
12:13 PM 26.6 °F 17.5 °F 21.2 °F 80% 29.97 in 10.0 mi West 9.2 mph - N/A   Overcast
12:33 PM 26.6 °F 15.7 °F 21.2 °F 80% 29.96 in 10.0 mi West 12.7 mph 18.4 mph N/A   Overcast
12:53 PM 26.6 °F 16.2 °F 21.2 °F 80% 29.96 in 10.0 mi West 11.5 mph - N/A   Overcast
1:13 PM 26.6 °F 14.3 °F 21.2 °F 80% 29.96 in 10.0 mi West 16.1 mph - N/A   Overcast
1:34 PM 26.6 °F 14.3 °F 21.2 °F 80% 29.96 in 10.0 mi West 16.1 mph - N/A   Overcast
1:53 PM 28.4 °F 18.5 °F 23.0 °F 80% 29.96 in 10.0 mi West 11.5 mph - N/A   Overcast
2:13 PM 30.2 °F 19.3 °F 23.0 °F 75% 29.96 in 10.0 mi WNW 15.0 mph - N/A   Mostly Cloudy
2:34 PM 28.4 °F 19.1 °F 23.0 °F 80% 29.96 in 10.0 mi West 10.4 mph - N/A   Overcast
2:53 PM 30.2 °F 21.3 °F 23.0 °F 75% 29.96 in 10.0 mi West 10.4 mph - N/A   Overcast
3:13 PM 30.2 °F 19.8 °F 23.0 °F 75% 29.96 in 10.0 mi WNW 13.8 mph - N/A   Overcast
3:34 PM 30.2 °F 21.3 °F 23.0 °F 75% 29.97 in 10.0 mi WNW 10.4 mph - N/A   Overcast
3:53 PM 30.2 °F 18.1 °F 21.2 °F 69% 29.98 in 10.0 mi WNW 18.4 mph 28.8 mph N/A   Overcast
4:13 PM 28.4 °F 14.7 °F 23.0 °F 80% 29.99 in 10.0 mi NW 21.9 mph 25.3 mph N/A   Overcast
4:33 PM 28.4 °F 16.6 °F 19.4 °F 69% 29.99 in 10.0 mi NW 16.1 mph 21.9 mph N/A   Overcast
4:53 PM 26.6 °F 14.3 °F 19.4 °F 74% 30.01 in 10.0 mi NW 16.1 mph 20.7 mph N/A   Overcast
5:13 PM 26.6 °F 16.2 °F 19.4 °F 74% 30.01 in 10.0 mi NNW 11.5 mph 19.6 mph N/A   Overcast
5:53 PM 24.8 °F - 17.6 °F 74% 30.04 in 10.0 mi North - - N/A   Overcast
6:13 PM 24.8 °F 12.9 °F 15.8 °F 69% 30.05 in 10.0 mi NW 13.8 mph - N/A   Overcast
6:33 PM 24.8 °F 12.4 °F 15.8 °F 69% 30.05 in 10.0 mi NNW 15.0 mph 19.6 mph N/A   Overcast
6:54 PM 24.8 °F 16.1 °F 15.8 °F 69% 30.07 in 10.0 mi NW 8.1 mph - N/A   Overcast
7:13 PM 24.8 °F 14.0 °F 15.8 °F 69% 30.07 in 10.0 mi NW 11.5 mph - N/A   Overcast
7:33 PM 24.8 °F 14.6 °F 15.8 °F 69% 30.08 in 10.0 mi NW 10.4 mph - N/A   Overcast
7:54 PM 23.0 °F 9.6 °F 12.2 °F 63% 30.08 in 10.0 mi NNW 16.1 mph - N/A   Overcast
8:13 PM 21.2 °F 8.9 °F 12.2 °F 68% 30.09 in 10.0 mi NNW 12.7 mph - N/A   Overcast
8:33 PM 21.2 °F 8.3 °F 12.2 °F 68% 30.10 in 10.0 mi NNW 13.8 mph - N/A   Overcast
8:54 PM 19.4 °F 5.0 °F 10.4 °F 68% 30.11 in 10.0 mi NNW 16.1 mph - N/A   Overcast
9:13 PM 19.4 °F 7.9 °F 10.4 °F 68% 30.12 in 10.0 mi NNW 10.4 mph - N/A   Overcast
9:33 PM 19.4 °F 5.5 °F 10.4 °F 68% 30.13 in 10.0 mi NNW 15.0 mph 23.0 mph N/A   Overcast
9:54 PM 17.6 °F 3.7 °F 8.6 °F 68% 30.15 in 10.0 mi NNW 13.8 mph 21.9 mph N/A   Overcast
10:13 PM 17.6 °F 3.7 °F 8.6 °F 68% 30.16 in 10.0 mi NW 13.8 mph - N/A   Overcast
10:33 PM 15.8 °F -0.2 °F 8.6 °F 73% 30.16 in 10.0 mi NNW 17.3 mph - N/A   Overcast
10:54 PM 15.8 °F 0.9 °F 6.8 °F 68% 30.17 in 10.0 mi NNW 15.0 mph 24.2 mph N/A   Overcast
11:13 PM 14.0 °F -0.2 °F 8.6 °F 79% 30.18 in 10.0 mi NNW 12.7 mph 18.4 mph N/A   Overcast
11:33 PM 14.0 °F -0.2 °F 6.8 °F 73% 30.20 in 10.0 mi NW 12.7 mph - N/A   Overcast
11:54 PM 12.2 °F -3.1 °F 6.8 °F 79% 30.21 in 10.0 mi NW 13.8 mph 19.6 mph N/A   Mostly Cloudy